www.pogodaiklimat.ru

Погода и климат >> Архив погоды >> Норвегия >> Мыкен


ПОГОДА на Мыкене

  • Прогноз погоды на Мыкене
  • Монитор погоды на Мыкене

АРХИВ ПОГОДЫ на Мыкене

Время (UTC), дата Ветер
(напр.,м/с)
 
Видим.   Явления Облачность Т
(С)
Тd
(С)
f
(%)
Тe
(С)
Тes
(С)
Комфортность P
(гПа)
Po
(гПа)
Тmin
(С)
Tmax
(С)
R
(мм)
R24
(мм)
S
(см)
19 19.03 Ю 14-18
{18}
н/о н/о +4.0 -1.7 66 -3 -3 1005.4 1003.3
20 19.03 Ю 15-18
{19}
н/о н/о +4.4 -2.9 59 -3 -3 1003.8 1001.7
21 19.03 Ю 17-24
{24}
15 км 10/10 300 м
[St]
+4.4 -2.9 59 -3 -3 1001.9 999.8
22 19.03 Ю 20-24
{26}
н/о н/о +2.4 +0.3 86 -7 -7 1000.6 998.5
23 19.03 Ю 17-22
{25}
н/о н/о +2.0 +0.7 91 -7 -7 999.2 997.1
00 20.03 Ю 16-21
{26}
н/о н/о +1.8 +0.9 94 -7 -7 997.8 995.7
01 20.03 Ю 15-22
{22}
н/о н/о +2.8 +1.5 91 -6 -6 997.4 995.3
02 20.03 Ю 16-21
{21}
н/о н/о +3.0 +1.8 92 -6 -6 996.9 994.8
03 20.03 Ю 15-20
{25}
н/о н/о +3.5 +2.5 93 -5 -5 997.7 995.6
04 20.03 Ю 13-17
{21}
н/о н/о +3.9 +2.9 93 -4 -4 997.9 995.8
05 20.03 ЮЗ 6-9
{15}
н/о н/о +4.7 +3.2 90 -1 -1 998.7 996.6
06 20.03 ЮЗ 8-11
{25}
н/о н/о +5.0 +2.2 82 -1 -1 999.1 997.0 +1.4 +5.2
07 20.03 ЮЗ 7-10
{12}
н/о н/о +5.3 +2.1 80 0 0 999.7 997.6
08 20.03 ЮЗ 5-7
{12}
н/о н/о +4.9 +1.9 81 0 0 1000.4 998.3
09 20.03 ЮЗ 7-16
{18}
н/о н/о +4.1 +1.3 82 -2 -2 1000.9 998.8
10 20.03 ЮЗ 7-11
{12}
н/о н/о +5.0 +2.0 81 -0 -0 1001.2 999.1
11 20.03 ЮЗ 11-15
{15}
н/о н/о +3.5 +1.7 88 -4 -4 1001.6 999.5
12 20.03 ЮЗ 6-8
{18}
н/о н/о +4.0 +2.2 88 -2 -2 1002.1 1000.0
13 20.03 ЮЗ 8-12
{17}
н/о н/о +5.0 +2.9 86 -1 -1 1002.1 1000.0
14 20.03 ЮЗ 8-11
{14}
н/о н/о +4.9 +2.6 85 -1 -1 1002.6 1000.5
15 20.03 ЮЗ 8-11
{12}
н/о н/о +4.5 +2.4 86 -2 -2 1003.0 1000.9
16 20.03 ЮЗ 8-10
{12}
н/о н/о +4.4 +2.1 85 -2 -2 1003.7 1001.6
17 20.03 ЮЗ 8-12
{16}
н/о н/о +4.1 +2.1 87 -2 -2 1004.1 1002.0
18 20.03 ЮЗ 9-15
{17}
н/о н/о +5.2 +2.0 80 -1 -1 1004.3 1002.2 +2.6 +6.1
19 20.03 ЮЗ 15-19
{19}
н/о н/о +5.0 +0.4 72 -2 -2 1004.5 1002.4
20 20.03 ЮЗ 11-15
{17}
н/о н/о +4.8 +1.3 78 -2 -2 1005.4 1003.3
21 20.03 З 10-13
{18}
н/о н/о +4.5 +0.1 73 -2 -2 1005.8 1003.7
22 20.03 ЮЗ 12-15
{15}
н/о н/о +4.9 +1.0 76 -2 -2 1006.0 1003.9
23 20.03 ЮЗ 7-11
{13}
н/о н/о +5.0 +0.4 72 -0 -0 1005.9 1003.8
00 21.03 ЮЗ 7-11
{19}
н/о н/о +5.0 +0.4 72 -0 -0 1005.5 1003.4
01 21.03 З 8-10
{15}
н/о н/о +3.2 +1.3 87 -3 -3 1005.0 1002.9
02 21.03 Ю 4-5
{9}
н/о н/о +3.2 +1.7 90 -2 -2 1003.6 1001.5
03 21.03 Ю 7-10
{10}
н/о н/о +4.3 +2.7 89 -2 -2 1001.8 999.7
04 21.03 Ю 9-12
{14}
н/о н/о +3.4 +2.2 92 -3 -3 1000.2 998.1
05 21.03 Ю 9-12
{14}
н/о н/о +3.2 +2.0 92 -4 -4 998.7 996.6
06 21.03 ЮВ 11-15
{15}
н/о н/о +2.9 +0.8 86 -5 -5 997.3 995.2 +2.7 +5.5
07 21.03 ЮВ 11-14
{16}
н/о н/о +2.7 +0.9 88 -5 -5 995.6 993.5
08 21.03 ЮВ 11-13
{14}
н/о н/о +2.1 +1.1 93 -6 -6 993.9 991.8
09 21.03 Ю 7-9
{12}
н/о н/о +2.8 +1.9 94 -4 -4 994.1 992.0
10 21.03 З 24-30
{31}
н/о н/о +4.9 +0.5 73 -4 -4 995.7 993.6
11 21.03 З 21-26
{31}
н/о н/о +4.3 -1.7 65 -4 -4 999.6 997.5
12 21.03 З 19-24
{31}
н/о н/о +3.0 -0.8 76 -6 -6 1003.0 1000.9
13 21.03 З 18-23
{28}
н/о н/о +4.0 -2.0 65 -4 -4 1005.2 1003.1
14 21.03 З 14-18
{27}
н/о н/о +2.8 -2.1 70 -5 -5 1007.5 1005.4
15 21.03 З 18-25
{26}
н/о н/о +1.7 -2.2 75 -8 -8 1008.6 1006.5
17 21.03 З 15-20
{23}
н/о н/о +1.8 -3.1 70 -7 -7 1012.0 1009.9
18 21.03 СЗ 11-16
{28}
н/о н/о +2.1 -1.0 80 -6 -6 1013.3 1011.2 +0.1 +4.9
19 21.03 СЗ 12-16
{20}
н/о н/о +2.0 -2.3 73 -6 -6 1014.0 1011.9
20 21.03 З 16-21
{21}
н/о н/о +1.7 -1.9 77 -7 -7 1014.9 1012.8
21 21.03 З 12-15
{21}
н/о н/о +3.1 -3.7 61 -4 -4 1016.2 1014.1
22 21.03 З 12-14
{20}
н/о н/о +2.7 -3.6 63 -5 -5 1016.6 1014.5
23 21.03 ЮЗ 6-12
{18}
н/о н/о +1.7 -1.2 81 -4 -4 1017.5 1015.4
01 22.03 З 10-12
{13}
н/о н/о +3.9 -4.0 56 -2 -2 1018.0 1015.9
02 22.03 З 7-9
{10}
н/о н/о +4.0 -3.9 56 -1 -1 1018.5 1016.4
03 22.03 ЮЗ 7-10
{11}
н/о н/о +3.7 -1.4 69 -2 -2 1018.4 1016.3
04 22.03 Ю 8-11
{12}
н/о н/о +3.4 +1.0 84 -3 -3 1018.2 1016.1
05 22.03 Ю 9-11
{13}
н/о н/о +3.0 +0.6 84 -4 -4 1018.4 1016.3
06 22.03 Ю 7-10
{13}
н/о н/о +3.1 +1.3 88 -3 -3 1017.8 1015.7 +0.7 +4.3
07 22.03 Ю 10-14
{14}
н/о н/о +3.7 +2.1 89 -3 -3 1017.1 1015.0
08 22.03 Ю 13-16
{16}
н/о н/о +3.4 +1.3 86 -4 -4 1016.2 1014.1
09 22.03 Ю 12-16
{16}
н/о н/о +3.2 +1.7 90 -5 -5 1015.3 1013.2
10 22.03 Ю 13-16
{17}
н/о н/о +3.4 +1.0 84 -4 -4 1013.7 1011.6
11 22.03 Ю 13-16
{17}
н/о н/о +4.2 +1.1 80 -3 -3 1011.8 1009.7
12 22.03 Ю 12-16
{17}
н/о н/о +4.4 +1.8 83 -3 -3 1010.6 1008.5
13 22.03 Ю 15-20
{21}
н/о н/о +4.1 +1.8 85 -4 -4 1008.3 1006.2
14 22.03 ЮВ 16-21
{21}
н/о н/о +3.9 +1.6 85 -4 -4 1005.1 1003.0
15 22.03 Ю 17-22
{22}
н/о н/о +3.9 +1.5 84 -5 -5 1002.2 1000.1
16 22.03 Ю 15-19
{21}
н/о н/о +4.4 +2.4 87 -3 -3 1000.2 998.1
17 22.03 Ю 15-20
{20}
н/о н/о +4.9 +3.3 89 -3 -3 998.7 996.6
18 22.03 Ю 17-24
{24}
н/о н/о +6.0 +3.5 84 -2 -2 997.1 995.0 +3.0 +6.2
19 22.03 Ю 21-26
{26}
н/о н/о +6.2 +3.0 80 -2 -2 995.4 993.3
20 22.03 Ю 17-22
{25}
н/о н/о +5.7 +3.9 88 -2 -2 995.7 993.6
21 22.03 Ю 16-20
{21}
н/о н/о +5.8 +4.5 91 -2 -2 994.6 992.5
22 22.03 Ю 16-21
{21}
н/о н/о +5.9 +4.7 92 -2 -2 994.1 992.0
23 22.03 Ю 16-20
{22}
н/о н/о +6.1 +4.6 90 -1 -1 992.9 990.9
00 23.03 Ю 15-20
{26}
н/о н/о +5.8 +3.8 87 -2 -2 991.9 989.9
01 23.03 Ю 13-18
{21}
н/о н/о +5.8 +3.3 84 -1 -1 991.0 989.0
02 23.03 Ю 15-20
{20}
н/о н/о +5.6 +3.1 84 -2 -2 989.9 987.9
03 23.03 Ю 15-21
{24}
н/о н/о +3.3 +1.8 90 -5 -5 988.7 986.6
04 23.03 Ю 14-19
{19}
н/о н/о +4.9 +1.8 80 -2 -2 988.1 986.1
05 23.03 ЮЗ 11-17
{23}
н/о н/о +3.3 +1.4 87 -4 -4 988.0 985.9
06 23.03 Ю 12-16
{24}
н/о н/о +3.7 +1.4 85 -4 -4 987.3 985.2 +1.8 +6.4
07 23.03 Ю 12-18
{19}
н/о н/о +4.8 +1.5 79 -2 -2 986.3 984.3
08 23.03 Ю 12-17
{22}
н/о н/о +3.8 +0.7 80 -4 -4 985.0 983.0
09 23.03 ЮЗ 16-24
{24}
15 км в посл. час крупа {ливн. осадки} 9/1 300 м
[Cb cap Ac cuf]
+3.3 -0.3 77 -5 -5 984.2 982.2
10 23.03 Ю 17-25
{27}
н/о н/о +4.5 +0.8 77 -4 -4 983.1 981.1
11 23.03 Ю 15-22
{27}
н/о н/о +4.5 +0.8 77 -3 -3 982.0 980.0
12 23.03 ЮЗ 17-24
{30}
200 м ливневой снег 10/10 300 м
[Cb cap]
+4.2 +0.7 78 -4 -4 980.5 978.5
13 23.03 ЮЗ 20-30
{31}
н/о н/о +3.9 -0.9 71 -5 -5 980.3 978.3
14 23.03 ЮЗ 19-27
{29}
н/о н/о +3.6 -0.8 73 -5 -5 979.3 977.3
15 23.03 ЮЗ 19-30
{30}
10 км слаб. дождь 10/3 300 м
[Frnb As op]
+4.1 +0.3 76 -4 -4 977.8 975.8
16 23.03 ЮЗ 20-28
{30}
н/о н/о +3.9 +2.1 88 -5 -5 976.0 974.0
17 23.03 ЮЗ 19-28
{31}
н/о н/о +4.7 +2.6 86 -4 -4 975.5 973.5
18 23.03 ЮЗ 20-27
{31}
10 км слаб. дождь 10/3 300 м
[Frnb As op]
+4.5 +2.4 86 -4 -4 976.6 974.6 +2.1 +5.0
19 23.03 З 22-31
{31}
н/о н/о +4.7 +2.4 85 -4 -4 978.1 976.1
20 23.03 З 26-31
{31}
н/о н/о +5.1 +2.0 80 -4 -4 979.6 977.6
21 23.03 З 23-29
{32}
10 км слаб. дождь 10/3 300 м
[Frnb As op]
+4.4 +1.8 83 -5 -5 983.8 981.8
22 23.03 З 21-26
{30}
н/о н/о +3.9 +1.1 82 -5 -5 986.5 984.5
23 23.03 З 21-26
{29}
н/о н/о +3.9 -0.1 75 -5 -5 988.7 986.6
00 24.03 З 20-27
{32}
10 км слаб. дождь 10/3 300 м
[Frnb As op]
+3.8 -2.6 63 -5 -5 990.3 988.2
01 24.03 З 20-26
{26}
н/о н/о +3.3 -3.0 63 -5 -5 991.4 989.3
02 24.03 З 20-24
{27}
н/о н/о +2.9 -4.3 59 -6 -6 993.1 991.0
03 24.03 З 19-25
{25}
н/о н/о +2.8 -3.9 61 -6 -6 994.4 992.3
04 24.03 З 17-20
{23}
н/о н/о +2.1 -2.4 72 -7 -7 995.3 993.2
05 24.03 З 17-21
{23}
н/о н/о +0.6 -1.1 88 -9 -9 996.6 994.5
06 24.03 З 17
{27}
4000 м слаб. крупа {дождь} 9/9 300 м
[Cb cap]
+1.9 -1.9 76 -7 -7 996.4 994.3 +0.5 +5.4
07 24.03 З 17-22
{22}
н/о н/о +2.1 +0.8 91 -7 -7 996.1 994.0
08 24.03 З 15-21
{24}
н/о н/о +2.6 +1.0 89 -6 -6 996.3 994.2
09 24.03 СЗ 13-18
{23}
500 м ливневой дождь со снегом 9/3 300 м
[Cb calv Ac cuf]
+1.1 +0.5 96 -8 -8 998.1 996.0
10 24.03 СЗ 13-16
{20}
н/о н/о +3.0 +0.1 81 -5 -5 999.2 997.1
11 24.03 СЗ 12-15
{17}
н/о н/о +3.2 -3.3 62 -4 -4 999.9 997.8
12 24.03 СЗ 10-13
{24}
20 км {ливн. осадки} 9/1 300 м
[Cb calv Ac cuf]
+3.2 -4.2 58 -3 -3 1001.2 999.1
13 24.03 СЗ 9-12
{15}
н/о н/о +2.7 -3.4 64 -4 -4 1001.9 999.8
14 24.03 СЗ 8-10
{19}
н/о н/о +2.1 -1.5 77 -5 -5 1002.4 1000.3
15 24.03 СЗ 12-16
{16}
20 км 8/1 300 м
[Cb calv Ac cuf]
+1.5 -3.9 67 -6 -6 1002.8 1000.7
16 24.03 СЗ 10-14
{14}
н/о н/о +2.2 -4.3 62 -5 -5 1002.9 1000.8
17 24.03 СЗ 8-10
{15}
н/о н/о +1.9 -2.4 73 -5 -5 1003.5 1001.4
18 24.03 СЗ 10-12
{19}
20 км {ливн. осадки} 8/1 300 м
[Cb cap Ac cuf]
+1.5 -1.7 79 -6 -6 1003.7 1001.6 +0.5 +3.4
19 24.03 СЗ 15-20
{20}
н/о н/о +0.7 -1.2 87 -9 -9 1003.4 1001.3
20 24.03 С 12-16
{19}
н/о н/о +0.4 -0.4 94 -8 -8 1004.9 1002.8
21 24.03 СЗ 12-18
{18}
300 м ливневой снег 9/3 300 м
[Cb calv Ac cuf]
+0.2 -0.4 96 -9 -9 1005.4 1003.3
22 24.03 С 9-12
{13}
н/о н/о +1.3 -0.6 87 -6 -6 1006.2 1004.1
23 24.03 СЗ 15-17
{18}
н/о н/о +2.4 -3.1 67 -6 -6 1006.1 1004.0
00 25.03 СЗ 10-13
{20}
3000 м слаб. ливневой снег 9/3 300 м
[Cb calv Ac cuf]
+0.9 -0.8 88 -7 -7 1007.7 1005.6
01 25.03 СЗ 12-16
{18}
н/о н/о +2.5 -4.7 59 -5 -5 1007.8 1005.7
02 25.03 СЗ 11-13
{15}
н/о н/о +2.5 -4.7 59 -5 -5 1008.7 1006.6
03 25.03 СЗ 11-16
{16}
н/о н/о +2.3 -4.6 60 -5 -5 1009.3 1007.2
04 25.03 СЗ 11-14
{15}
н/о н/о +2.1 -4.6 61 -5 -5 1009.9 1007.8
05 25.03 СЗ 10-12
{15}
н/о н/о +1.4 -3.1 72 -6 -6 1010.2 1008.1
06 25.03 СЗ 10
{18}
15 км {ливн. осадки} 9/1 300 м
[Cb cap Ac As]
+1.5 -3.2 71 -6 -6 1010.3 1008.2 -0.5 +2.5
07 25.03 СЗ 5-7
{14}
н/о н/о +0.8 -1.4 85 -5 -5 1010.6 1008.5
08 25.03 СЗ 9-11
{18}
н/о н/о +0.6 -3.7 73 -7 -7 1010.4 1008.3
09 25.03 СЗ 5-6
{11}
20 км {ливн. осадки} 10/1 300 м
[Cb calv Ac cuf]
+1.0 -2.6 77 -5 -4 1010.5 1008.4
10 25.03 С 3-4
{9}
н/о н/о +1.3 -3.2 72 -3 -3 1009.7 1007.6
11 25.03 Ю 4-6
{6}
н/о н/о +2.1 -3.6 66 -2 -2 1008.5 1006.4
12 25.03 Ю 7-10
{18}
5000 м слаб. ливневой снег 9/3 300 м
[Cb calv Ac cuf]
+0.5 -0.8 91 -7 -6 1007.1 1005.0
13 25.03 Ю 12-15
{15}
н/о н/о +1.1 -1.0 86 -7 -7 1004.0 1001.9
14 25.03 Ю 15-18
{18}
н/о н/о +0.7 +0.3 97 -9 -9 1000.7 998.6
15 25.03 З 12-16
{21}
3000 м снег {ливн. осадки} 10/3 300 м
[Frnb As op]
-0.1 -0.5 97 -9 -9 1000.0 997.9
16 25.03 З 11-13
{14}
н/о н/о +0.9 -3.2 74 -7 -7 999.7 997.6
17 25.03 З 7-9
{12}
н/о н/о +0.1 -2.9 80 -7 -7 1000.2 998.1
18 25.03 З 3-6
{21}
15 км в посл. час ливневой снег 9/1 300 м
[Cb calv Ac cuf]
-0.6 -1.2 96 -6 -6 1001.5 999.4 -1.4 +2.5
19 25.03 ЮВ 5-7
{8}
н/о н/о -0.8 -1.5 95 -7 -7 1003.0 1000.9
20 25.03 С 9-13
{13}
н/о н/о +0.4 -0.9 91 -7 -7 1005.3 1003.2
21 25.03 СВ 15-18
{22}
>70 км {ливн. осадки} 3/0 2000 м
[Ac As]
+1.4 -2.0 78 -7 -7 1007.7 1005.6
22 25.03 С 16-19
{19}
н/о н/о +2.0 -3.9 65 -7 -7 1009.2 1007.1
23 25.03 С 15-17
{19}
н/о н/о +1.9 -4.4 63 -7 -7 1011.1 1009.0
00 26.03 С 12-14
{22}
>70 км {ливн. осадки} 3/0 2000 м
[Ac As]
+1.8 -6.0 56 -6 -6 1012.5 1010.4
01 26.03 С 10-13
{14}
н/о н/о +2.2 -5.4 57 -5 -5 1013.4 1011.3
02 26.03 С 5-7
{13}
н/о н/о +1.1 -3.5 71 -4 -4 1014.4 1012.3
03 26.03 СВ 7-8
{12}
н/о н/о +0.8 -2.6 78 -6 -6 1014.8 1012.7
04 26.03 С 5-9
{9}
н/о н/о +1.0 -4.4 67 -4 -4 1015.3 1013.2
05 26.03 С 2-3
{9}
н/о н/о +1.0 -3.6 71 -2 -2 1015.5 1013.4
06 26.03 ЮВ 4-5
{14}
20 км {ливн. осадки} 6/1 300 м
[Cb cap Ac cuf]
+0.6 -2.8 78 -5 -4 1015.5 1013.4 -1.2 +2.3
07 26.03 ЮВ 4-6
{6}
н/о н/о +1.1 -3.7 70 -4 -4 1015.4 1013.3
08 26.03 ЮВ 5-6
{6}
н/о н/о +1.3 -2.4 76 -4 -4 1015.2 1013.1
09 26.03 Ю 5-7
{7}
15 км 8/1 300 м
[Cb calv Ac cuf]
+1.6 -3.8 67 -4 -3 1015.3 1013.2
10 26.03 Ю 6-8
{9}
н/о н/о +1.5 -3.7 68 -4 -4 1014.5 1012.4
11 26.03 ЮВ 7-9
{9}
н/о н/о +1.4 -3.8 68 -5 -5 1013.6 1011.5
12 26.03 Ю 8-10
{10}
15 км {ливн. осадки} 9/1 300 м
[Cb calv Ac cuf]
+1.6 -4.2 65 -5 -5 1012.6 1010.5
13 26.03 Ю 9-13
{13}
н/о н/о +1.7 -4.8 62 -5 -5 1011.4 1009.3
14 26.03 Ю 11-14
{14}
н/о н/о +1.4 -4.2 66 -6 -6 1010.7 1008.6
15 26.03 Ю 13-17
{17}
н/о н/о +1.3 -4.7 64 -7 -7 1009.1 1007.0
16 26.03 Ю 14-18
{18}
н/о н/о +1.3 -3.3 71 -7 -7 1007.7 1005.6
17 26.03 Ю 14-19
{19}
н/о н/о +1.0 -3.5 72 -8 -8 1006.3 1004.2
18 26.03 ЮВ 16-19
{20}
н/о н/о +0.6 -3.1 76 -9 -9 1005.0 1002.9 +0.5 +2.0

 

Местоположение метеостанции Мыкен (Норвегия): широта 66.77 долгота 12.48 высота над уровнем моря 17 м.

В архиве по умолчанию представлена погода на Мыкене за последнюю неделю. Архивные данные за месяц целиком и за предыдущие месяцы, начиная с января 2011 года, Вы можете получить, выбрав интересующий диапазон дат из раскрывающегося списка и нажав кнопку "Ввод!".


*Определитесь, кто Вы:
робот инопланетянин человек

Внимание! Время в таблицах - всемирное. Для получения местного времени необходимо прибавить поправку, которая равна 1 ч.

Смотрите также архив погоды в соседних городах и на ближайших метеорологических станциях:

Погода в Солвер III (Норвегия) (45 км)
Погода в Рейпе (Норвегия) (53 км)
Погода в Рост аэропорту (Норвегия) (85 км)
Погода в Скамдале (Норвегия) (86 км)
Погода в Сельджеля (Норвегия) (86 км)
Погода в Саннесшёэн аэропорту (Норвегия) (90 км)
Погода в Аэропорту Mo i Rana (Норвегия) (93 км)
Погода в Хеллигвере (Норвегия) (93 км)
Погода в Аэропорту Vaeroy Heliport (Норвегия) (98 км)
Погода в Бодо (Норвегия) (99 км)

Пояснения к столбцам:

Ветер - указаны скорость ветра в м/с - средняя за 10 мин, порывы в срок и между сроками (в фигурных скобках) и направление, откуда дует ветер: С - северный, СВ - северо-восточный, В - восточный, ЮВ - юго-восточный, Ю - южный, ЮЗ - юго-западный, З - западный, СЗ - северо-западный.
Видимость - горизонтальная дальность видимости в метрах или километрах. При видимости от 1 до 10 км при отсутствии осадков обычно наблюдается дымка, при ухудшении видимости до 1 км и менее - туман. В сухую погоду видимость может ухудшаться дымом, пылью или мглою.
Явления - указаны атмосферные явления, наблюдавшиеся в срок или в последний час перед сроком; фигурными скобками обозначены явления, наблюдавшиеся между сроками (за 1-3 часа до срока); квадратными скобками обозначены град или гололедные отложения с указанием их диаметра в мм.
Облачность - указаны через наклонную черту общая и нижняя облачность в баллах и высота нижней границы облаков в метрах; квадратными скобками обозначены формы облаков: Ci - перистые, Cs - перисто-слоистые, Cc - перисто-кучевые, Ac - высококучевые, As - высокослоистые, Sc - слоисто-кучевые, Ns - слоисто-дождевые, Cu - кучевые, Cb - кучево-дождевые. Подробнее классификацию облаков см. в Атласе облаков (PDF).
T - Температура воздуха - температура, измеренная на высоте 2 м над землей.
Td - Температура точки росы - температура, при понижении до которой содержащийся в воздухе водяной пар достигнет насыщения.
f - Относительная влажность воздуха - влажноcть воздуха, измеренная на высоте 2 м над землей.
Te - Эффективная температура - температура, которую ощущает одетый по сезону человек в тени. Характеристика душности погоды. При расчете учитывается влияние влажности воздуха и скорости ветра на теплоощущения человека.
Tes - Эффективная температура на солнце - температура, которую ощущает человек, с поправкой на солнечный нагрев. Характеристика знойности погоды. Зависит от высоты солнца над горизонтом, облачности и скорости ветра. Ночью, в пасмурную погоду, а также при ветре 12 м/с и более поправка равна нулю.
P - Атмосферное давление - приведенное к уровню моря атмосферное давление.
Po - Атмосферное давление - измеренное на уровне метеостанции атмосферное давление.
Tmin - Минимальная температура - минимум температуры воздуха на высоте 2 м над землей.
Tmax - Максимальная температура - максимум температуры воздуха на высоте 2 м над землей.
R - Количество осадков - Количество выпавших осадков за период времени, мм. При наведении курсора мыши на число - период времени, за который выпало указанное количество осадков.
R24 - Количество осадков - Количество выпавших осадков за 24 часа, мм.
S - Снежный покров - Высота снежного покрова, см. При наведении курсора мыши на число - состояние снежного покрова и степень покрытия местности в баллах.